loading
|

STARLINK-11189, 60188

Orbit data source: Space-Track

STARLINK-11189, 60188 is a payload satellite owned by SpaceX/Seattle (US) in LEO that was launched on Wed, 03 Jul 2024 UTC via an FALCON 9 launch vehicle from the Air Force Eastern Test Range (AFETR). Payloads include a variety of satellites, spacecraft, and rockets equipped with specific instruments for various scientific and technological missions. These include communications satellites like Starlink; space stations such as the ISS; scientific satellites like the Hubble; Earth observation satellites from companies like Planet Labs, Umbra, and HawkEye 360; GPS; miniature CubeSats for education and research; and military/defense satellites.

Loading next visibility...
Loading greatness...
STARLINK-11189 details
Identifier
60188, 2024-124F
Orbit
LEO
Last TLE update13 hours ago
Origin
Flag of USSpaceX/Seattle (US)
ManufacturerSpaceX/Seattle
Mission statusOperational
MissionUnknown
Bus & MotorSTARLINK V2M, Unknown motor
Mass750 kg wet, ~700 kg dry
Launch date (UTC)
2024-07-03 (3 months ago)
Launch vehicle
FALCON 9
Launch site
Air Force Eastern Test Range (AFETR)
Object type
Payload
Rocket body
Debris
Radar Cross SectionLarge (>1 m²)

Expand to show TLE details & history

TLE from 13 hours ago
0 STARLINK-11189
1 60188U 24124F   24261.39485228  .00070831  00000-0  58306-3 0  9996
2 60188  53.1559 295.2323 0000723  95.4830 264.6271 15.69770264 11984
Epoch: 2024-09-17T09:28Z
Definitive object data (Epoch: 2024-09-17T09:28:35.237Z)
Latitude0.00005°
Longitude156.27539°
Altitude360.515 km
Speed7.694 km/s
True Right ascension19h 40m 55s
True Declination0° 00' 00"
Sunlit
Object was in full shadow at TLE epoch
Predictive object data (real-time)
Latitude52.43843°
Longitude-101.98838°
Altitude365.216 km
Speed7.697 km/s
Apparent Right ascension02h 43m 08s
Apparent Declination7° 54' 53"
Sunlit
Object is in full shadow
Predictive observer data (real-time)
Local Sidereal Time14:55:57
Azimuth4.281° NNE
Elevation-42.077°
Doppler factor1
Orbital elements
Apogee360.303 km
Perigee359.329 km
Semi-major axis6,737.953 km
Eccentricity0.0000723
Inclination53.1559°
RAAN295.2323°
Arg. of periapsis95.483°
True anomaly264.61885°
Mean anomaly264.6271°
Eccentric anomaly264.62298°
Mean motion3.9242 °/min
BSTAR0.00058306
Period91.74 mins
No data available

STARLINK-11189 Visibility forecast

Observer location: 39.9160978°, -105.1181434

STARLINK-11189 is not visible in the next 10 days
Span
Click to sort rows by Start time (UTC) header in descending order
Start Az.
Max El. time (UTC)
Max El. Az.
Max El.
End time (UTC)
End Az.